Temperature
16 17 17 17 17 16 16 15 15 16 16 16 16 16 17 17 17 17 17 17 17 17 18 17 17 17 17 17 17 17 17 17 16 16 16 16 16 15 15 15 15 15 15 15
16 17 17 17 17 17 17 16 16 16 16 16 17 17 17 17 16 16 17 17 17 17 17 17 17 17 17 17 17 17 16 16 16 16 16 16 16 15 15 15 15 15 15 15
15 16 17 16 17 17 17 16 16 16 16 16 16 16 17 17 17 17 17 17 17 17 17 17 17 17 17 17 17 16 16 16 16 16 16 16 16 15 15 15 15 15 15 15
13 15 16 16 17 17 17 16 16 16 16 16 17 17 18 18 18 17 17 17 17 17 17 17 17 17 17 17 17 16 16 16 16 16 16 16 15 15 15 15 15 15 14 14
12 14 15 16 17 16 16 17 16 16 16 16 17 17 17 18 18 18 17 17 17 17 17 17 17 17 17 17 16 16 16 16 16 16 16 15 15 15 15 15 14 14 14 14
12 14 15 16 17 17 17 16 17 16 16 16 16 14 16 18 18 17 17 17 17 17 17 17 17 17 17 16 16 16 16 16 16 16 16 15 15 15 15 14 14 14 14 14
12 13 14 15 16 17 16 16 17 17 16 16 16 16 18 18 18 17 17 17 17 17 17 17 17 16 16 16 16 16 16 16 16 16 15 15 15 15 14 14 14 14 14 14
11 13 14 16 15 15 16 18 18 18 17 17 17 17 17 17 17 17 17 17 17 17 17 17 17 16 16 16 16 16 16 16 16 15 15 15 15 15 14 14 14 14 13 13
12 14 15 16 17 18 18 18 18 18 18 17 17 17 17 17 17 17 17 17 17 17 17 17 16 16 16 16 16 16 16 16 16 15 15 15 15 14 14 14 14 14 13 13
12 13 15 16 17 17 18 18 18 18 18 17 17 17 17 17 17 17 16 16 16 16 16 16 16 16 16 16 16 16 16 16 15 15 15 15 14 14 14 14 14 14 13 13
12 13 15 16 17 17 17 17 17 18 18 17 17 17 17 17 16 16 16 16 16 16 16 16 16 16 16 16 16 16 16 15 15 15 15 14 14 14 14 14 13 13 13 13
13 14 14 16 17 17 17 17 17 17 17 17 17 17 17 16 16 16 16 15 15 15 15 15 15 15 15 15 15 15 15 15 15 15 14 14 14 14 13 13 13 13 13 12
16 16 16 16 16 16 16 16 17 17 17 16 16 16 16 16 16 16 15 15 15 15 15 15 15 15 15 15 15 15 15 15 15 14 14 14 14 14 13 13 12 12 12 12
15 15 15 16 16 16 16 16 16 16 16 16 16 16 16 15 15 15 15 15 15 14 14 14 14 14 14 14 14 14 14 14 14 14 14 13 13 13 13 13 12 12 12 11
15 15 15 15 15 15 15 15 15 15 15 15 15 15 15 15 15 15 15 14 14 14 14 14 14 14 14 14 14 14 14 14 14 14 13 13 13 13 12 12 12 12 11 11
14 14 14 14 15 15 15 15 15 15 15 15 15 15 14 14 14 14 14 14 14 14 14 14 14 13 13 13 13 13 13 13 13 13 13 13 12 12 12 12 11 11 11 11
13 13 14 14 14 14 14 14 14 14 14 14 14 14 14 14 14 14 14 13 13 13 13 13 13 13 13 13 13 13 13 13 13 13 12 12 12 12 11 11 11 11 11 10
13 13 14 14 14 14 14 14 14 14 13 13 13 13 13 13 13 13 13 13 13 13 13 13 13 12 12 12 12 12 12 12 12 12 12 12 11 11 11 11 10 10 10 10
13 13 13 13 13 13 13 13 13 13 13 13 13 13 13 13 12 12 12 12 12 12 12 12 12 12 12 12 12 12 12 12 12 11 11 11 11 11 10 10 10 10 10 10
12 12 13 13 13 13 13 13 13 12 12 12 12 12 12 12 12 12 12 12 11 11 11 11 11 11 11 11 11 11 11 11 11 11 10 10 10 10 10 10 10 9 9 9
11 12 12 12 12 12 12 12 12 12 12 12 12 12 11 11 11 11 11 11 11 11 11 11 11 11 11 11 11 11 11 10 10 10 10 10 9 9 9 9 9 9 9 8
11 11 11 11 11 12 12 12 12 11 11 11 11 11 11 11 10 10 11 11 10 10 10 10 10 10 10 10 10 10 10 10 10 10 9 9 9 9 9 9 8 8 8 8
10 10 11 11 11 11 11 11 11 11 11 11 11 10 10 10 10 10 10 10 10 10 10 10 10 9 9 9 9 9 9 9 9 9 9 9 9 8 8 8 8 8 7 7
10 10 10 10 10 10 10 10 10 10 10 10 10 10 10 9 9 9 9 9 9 9 9 9 9 9 9 9 9 9 8 8 8 8 8 8 8 8 8 8 7 7 7 7
9 9 9 9 9 9 9 9 9 9 9 9 9 9 9 9 9 9 9 9 9 8 8 8 8 8 8 8 8 8 8 8 8 8 8 8 7 7 7 7 7 7 7 6
8 8 8 8 9 9 8 8 8 8 8 8 8 8 8 8 8 8 8 8 8 8 8 8 8 8 7 7 8 7 7 7 7 7 7 7 7 7 7 6 6 6 6 6
7 7 8 8 8 8 8 8 8 8 8 7 7 7 7 7 7 7 7 7 7 7 7 7 7 7 7 7 7 7 7 7 7 6 6 6 6 6 6 6 6 6 5 5
Wind_Speed
4 3 3 4 4 4 5 6 6 6 6 7 5 5 4 3 1 1 1 2 3 3 3 3 4 4 4 4 4 4 4 4 5 4 4 4 3 3 3 3 3 3 3 3
2 2 2 4 6 5 6 5 5 4 6 6 3 1 1 2 2 2 3 4 3 3 3 3 4 5 5 5 5 5 5 5 4 4 4 4 4 3 3 3 3 3 3 3
2 3 2 6 7 6 5 4 5 6 7 3 1 3 4 4 4 4 5 4 4 4 5 4 5 5 6 6 5 5 5 5 4 4 4 4 4 4 4 3 3 3 3 3
1 1 5 7 3 5 6 6 6 5 5 4 5 5 4 3 4 4 4 4 4 4 4 4 3 4 4 4 5 6 5 5 5 5 5 4 4 4 4 3 4 3 3 3
3 3 6 7 3 4 5 6 5 6 4 3 2 1 2 2 3 5 5 4 4 5 4 3 3 3 4 4 5 5 6 6 6 7 6 5 5 4 3 4 3 3 3 3
4 3 6 7 4 3 3 5 4 5 5 3 3 0 5 4 3 3 3 3 3 3 2 2 3 3 4 4 4 6 7 7 7 7 7 7 6 5 3 3 3 3 3 2
5 5 7 7 4 3 4 6 3 4 5 5 5 6 5 3 3 3 3 3 2 2 3 4 3 4 4 4 6 6 5 5 6 7 7 7 5 4 4 4 4 3 3 2
5 5 8 4 4 6 7 3 3 4 4 5 5 4 2 2 3 2 2 2 2 2 3 3 3 5 5 5 6 4 4 5 5 6 6 5 6 5 5 5 5 4 3 2
8 8 6 4 6 5 4 4 4 4 4 4 4 4 3 3 2 2 3 2 2 3 2 2 3 5 6 5 3 3 4 5 5 5 5 5 6 6 5 5 5 4 4 3
4 7 6 6 5 4 4 4 4 4 4 4 4 4 3 3 2 2 2 2 2 3 3 2 2 3 4 3 3 4 5 5 5 5 5 5 5 5 5 5 5 5 4 4
6 7 5 6 5 4 3 3 2 2 3 4 5 4 4 3 3 3 2 2 2 3 4 4 3 3 2 2 4 4 4 4 5 5 5 5 4 4 5 5 6 6 5 5
8 8 7 7 6 4 3 4 4 3 3 3 4 5 4 4 4 3 3 2 2 2 2 3 2 2 2 2 4 5 3 4 4 4 5 5 5 3 2 3 5 7 6 6
7 6 6 6 5 4 5 5 4 4 5 4 3 4 3 3 3 3 2 2 3 3 2 2 2 2 1 2 4 5 5 5 4 5 5 5 5 5 3 2 3 4 5 6
6 3 4 5 6 6 5 4 3 2 3 3 3 2 2 2 2 2 3 3 3 2 2 2 2 2 2 2 4 5 5 5 6 5 5 5 5 5 4 4 3 1 2 5
7 7 7 5 4 3 3 3 2 2 2 2 2 2 3 3 3 3 3 2 2 2 1 2 2 2 2 3 4 4 4 4 4 4 4 4 4 4 4 4 4 3 2 2
5 4 4 5 5 4 3 4 4 4 3 3 2 3 3 3 2 2 1 2 3 3 2 2 3 3 2 3 4 3 4 6 6 5 4 4 4 4 4 4 3 3 3 3
5 5 5 5 6 5 5 5 5 5 4 4 4 3 2 2 1 1 1 2 2 3 3 3 3 2 3 4 4 3 3 4 6 5 4 4 4 4 4 4 4 3 3 4
8 9 8 8 8 7 6 5 4 4 4 3 3 3 3 3 3 3 2 1 1 1 1 2 2 2 3 3 4 3 3 3 4 4 4 4 4 4 4 4 4 4 3 3
6 7 7 7 7 7 6 5 5 4 3 3 3 3 3 3 3 3 2 3 3 2 2 2 1 2 2 3 4 3 4 4 4 3 4 5 4 3 4 4 3 3 3 3
4 4 5 4 4 4 5 4 4 3 3 3 3 3 2 2 3 3 3 3 3 3 3 2 2 2 2 3 4 3 4 5 4 4 3 4 4 4 4 4 4 3 3 3
3 3 3 4 3 3 4 4 4 4 3 4 5 4 4 3 2 3 3 2 2 1 2 3 2 2 2 3 4 4 4 4 4 4 4 4 4 4 4 4 4 4 3 3
2 3 3 3 3 3 3 4 4 4 4 4 4 4 4 3 2 2 2 3 2 2 2 2 2 2 3 3 3 4 4 4 4 4 4 4 4 4 4 4 4 4 3 3
3 3 3 3 4 3 2 2 3 4 5 5 5 5 4 3 3 3 2 2 2 3 2 2 2 3 3 3 3 4 4 4 4 4 4 4 4 4 4 4 4 3 3 3
2 2 2 2 2 2 2 2 2 2 3 4 4 5 4 3 2 2 2 2 3 3 2 3 3 3 3 2 3 3 4 4 4 3 3 3 3 3 3 3 3 3 3 4
1 1 1 2 2 2 2 2 2 2 2 2 2 2 2 3 3 2 2 3 4 3 2 3 3 3 2 2 3 3 3 4 4 4 3 3 3 3 3 3 3 3 3 4
1 1 2 2 2 2 2 3 2 2 2 1 1 1 1 1 2 2 2 2 3 3 2 2 3 3 3 3 3 3 3 3 3 3 3 3 3 3 3 3 4 4 4 4
0 1 0 0 1 1 2 3 3 3 3 3 2 2 1 1 2 2 2 2 2 2 2 2 2 2 3 3 3 3 3 3 4 4 4 3 3 3 3 4 3 4 4 4
Wind_Direction
230 240 215 233 235 200 193 193 199 233 239 258 253 245 251 258 259 238 240 242 232 228 222 215 211 210 204 201 189 178 172 181 193 192 178 173 171 169 160 159 166 157 145 143
288 289 233 258 253 221 218 210 219 241 256 262 260 234 259 249 229 239 244 243 238 230 222 217 215 210 202 200 189 176 185 196 189 174 170 174 177 167 157 155 148 140 147 151
273 304 343 272 244 217 212 203 185 217 245 261 260 236 234 226 224 230 236 239 233 226 221 221 221 210 204 201 183 177 190 193 182 173 173 180 173 160 165 165 151 148 161 157
172 63 242 246 251 208 208 227 214 230 247 224 231 240 235 216 215 232 239 237 236 235 233 229 220 209 201 183 175 182 190 193 185 176 176 167 157 168 172 158 156 164 167 168
142 210 273 287 258 189 199 248 225 223 244 250 248 19 317 263 226 229 227 224 224 220 220 211 201 199 177 180 182 187 196 199 192 181 177 169 171 180 174 158 162 167 161 162
150 185 238 249 257 221 154 267 247 208 222 222 114 162 267 270 249 247 237 225 223 215 193 192 208 178 163 187 188 205 210 205 192 181 179 182 184 176 161 159 166 154 143 149
180 215 256 253 260 118 159 245 255 201 206 188 189 220 247 262 249 237 231 224 206 190 196 208 192 168 178 192 210 219 209 193 181 181 184 182 171 160 152 150 140 139 141 135
168 202 249 237 148 173 215 234 214 207 204 200 225 246 261 251 247 239 239 228 191 186 215 211 177 173 191 215 225 203 179 178 180 178 178 172 161 157 151 149 145 147 138 124
190 213 240 219 205 222 202 209 218 206 219 205 220 242 252 252 243 235 224 215 195 190 204 207 184 184 202 228 207 176 171 178 180 171 166 159 160 159 151 155 160 166 160 166
227 253 255 260 258 256 225 224 231 217 207 192 212 235 242 244 243 244 234 206 188 178 186 217 215 203 214 210 173 169 175 177 169 164 162 159 160 162 165 173 177 178 178 180
235 257 278 267 244 236 240 246 248 235 204 202 203 225 228 229 231 231 228 210 174 186 202 215 213 215 219 182 154 157 172 171 164 163 162 157 156 164 174 184 181 181 188 182
224 222 206 240 249 236 235 240 230 226 242 228 210 224 230 225 219 208 208 203 188 201 211 215 200 213 211 172 159 153 158 168 168 164 159 157 154 136 123 151 159 166 163 161
226 227 219 244 253 239 238 243 238 222 218 226 231 227 218 213 210 197 198 197 201 207 217 217 199 206 214 179 163 160 168 170 164 160 159 163 165 163 157 114 116 150 158 160
232 217 242 244 244 246 235 234 228 240 236 218 219 210 199 195 188 196 212 219 212 199 202 204 194 211 210 176 169 167 165 167 163 165 164 166 171 173 168 162 165 179 168 163
237 226 229 240 248 245 219 201 195 231 236 235 213 195 187 182 206 223 225 209 173 170 194 197 193 217 189 167 173 172 166 169 167 161 159 160 161 158 157 160 162 162 139 152
236 237 230 222 226 230 220 200 196 221 222 231 216 200 207 207 212 212 191 172 169 192 209 207 211 215 179 169 170 173 174 165 160 156 150 153 157 157 160 164 169 170 181 187
210 226 226 226 227 228 227 219 209 218 225 221 211 198 183 159 155 174 205 214 204 204 202 204 219 208 176 170 167 172 166 162 153 147 155 164 166 171 174 174 179 188 202 184
221 222 218 214 215 218 226 226 218 217 218 220 198 179 174 178 194 207 205 178 162 221 238 228 211 183 171 166 165 161 158 155 159 164 163 165 168 174 174 178 185 191 198 173
229 227 228 222 216 208 210 216 220 216 210 193 184 196 203 206 201 194 180 165 172 212 256 247 182 156 165 174 156 156 154 151 152 160 165 164 165 169 174 179 187 192 183 168
234 229 222 221 214 199 200 201 194 196 203 183 174 179 199 213 192 179 175 192 212 222 224 197 167 165 175 174 157 162 161 161 162 165 165 166 172 179 183 184 187 191 187 184
240 228 216 215 216 211 202 194 187 193 195 176 174 186 195 201 187 176 171 208 255 223 188 167 164 182 180 170 160 165 163 165 169 173 175 179 183 185 189 191 191 193 194 194
238 226 218 206 203 221 216 195 188 187 182 181 180 173 165 169 175 182 197 207 214 187 169 176 183 182 178 164 167 169 169 170 176 178 180 184 187 190 194 194 196 197 195 193
241 229 219 210 205 208 203 191 188 186 185 187 184 179 179 182 178 175 217 232 191 179 171 185 188 179 169 160 171 173 175 177 181 184 188 191 192 194 196 195 196 193 190 192
248 218 214 201 159 158 184 214 189 181 179 182 182 178 171 167 193 216 209 200 189 181 181 186 183 182 172 166 169 173 181 186 186 185 188 189 188 191 192 189 188 188 187 187
249 215 160 156 170 196 199 179 147 141 146 156 164 177 178 178 189 202 191 189 192 186 181 185 181 178 176 178 177 183 188 189 186 183 184 185 186 186 188 188 188 188 190 192
236 222 225 226 222 212 193 178 179 187 171 164 200 213 177 161 164 174 180 187 190 188 185 182 179 178 184 184 184 189 190 189 188 185 183 186 186 186 188 189 193 196 193 191
301 251 223 280 279 221 192 185 188 198 195 187 203 227 196 169 164 179 189 192 188 186 183 178 172 180 185 187 187 187 186 181 180 181 182 185 187 192 194 194 197 195 191 189
Height
1542 1540 1540 1540 1540 1541 1543 1546 1551 1546 1543 1536 1533 1532 1531 1531 1531 1531 1531 1532 1532 1533 1534 1535 1536 1538 1539 1541 1543 1544 1546 1547 1549 1550 1552 1553 1553 1554 1556 1557 1558 1558 1559 1560
1542 1539 1539 1539 1537 1537 1538 1539 1540 1539 1538 1530 1530 1530 1530 1529 1529 1529 1529 1530 1530 1531 1532 1533 1534 1535 1537 1539 1540 1542 1544 1545 1547 1548 1550 1551 1552 1553 1554 1555 1556 1557 1558 1558
1549 1542 1539 1543 1534 1533 1533 1533 1535 1537 1533 1528 1529 1528 1528 1528 1528 1528 1528 1528 1528 1528 1529 1531 1532 1533 1535 1536 1538 1540 1541 1543 1545 1546 1548 1549 1550 1551 1552 1553 1554 1555 1556 1556
1551 1546 1551 1537 1526 1526 1528 1528 1528 1527 1526 1525 1525 1525 1525 1525 1525 1525 1526 1526 1526 1527 1528 1529 1530 1531 1533 1534 1535 1537 1539 1541 1542 1544 1545 1547 1548 1549 1550 1551 1552 1553 1553 1554
1553 1552 1545 1533 1525 1525 1527 1527 1523 1524 1523 1523 1523 1523 1524 1524 1524 1524 1525 1525 1525 1526 1526 1527 1528 1529 1530 1532 1533 1535 1536 1538 1539 1541 1543 1544 1545 1546 1547 1548 1549 1550 1551 1552
1551 1549 1548 1532 1521 1520 1524 1528 1520 1520 1521 1521 1522 1527 1523 1522 1522 1522 1522 1523 1524 1524 1525 1525 1526 1527 1528 1529 1530 1531 1533 1535 1537 1538 1540 1541 1543 1544 1545 1546 1547 1548 1549 1549
1547 1546 1538 1523 1519 1520 1533 1529 1518 1517 1518 1519 1520 1520 1520 1519 1520 1520 1520 1521 1521 1522 1523 1523 1524 1525 1526 1526 1527 1528 1530 1532 1534 1536 1537 1539 1540 1541 1543 1544 1545 1545 1546 1547
1544 1544 1537 1517 1518 1521 1520 1516 1515 1515 1515 1516 1516 1517 1517 1517 1517 1517 1517 1518 1518 1519 1520 1521 1522 1522 1523 1524 1525 1526 1527 1529 1531 1532 1534 1536 1537 1539 1540 1541 1542 1543 1544 1544
1528 1526 1516 1514 1513 1514 1514 1514 1513 1513 1513 1514 1514 1514 1515 1515 1515 1515 1515 1515 1516 1516 1517 1518 1519 1519 1520 1521 1522 1523 1524 1526 1527 1529 1531 1533 1534 1536 1537 1538 1539 1540 1541 1542
1520 1515 1512 1511 1511 1511 1512 1511 1511 1511 1511 1512 1512 1512 1512 1513 1513 1512 1512 1513 1513 1514 1514 1515 1516 1516 1517 1518 1519 1520 1521 1523 1524 1526 1528 1530 1531 1533 1534 1535 1536 1537 1537 1538
1515 1511 1509 1508 1508 1509 1509 1509 1509 1510 1510 1510 1510 1510 1510 1510 1510 1510 1510 1510 1511 1511 1511 1512 1513 1513 1514 1515 1516 1517 1518 1519 1521 1522 1524 1526 1528 1529 1530 1532 1533 1534 1534 1536
1509 1505 1505 1504 1505 1506 1506 1506 1506 1507 1507 1507 1508 1508 1508 1508 1508 1507 1507 1508 1508 1508 1509 1509 1510 1511 1511 1512 1513 1514 1515 1516 1518 1519 1521 1523 1525 1526 1528 1529 1530 1531 1532 1533
1500 1500 1500 1500 1501 1502 1503 1503 1504 1504 1504 1504 1505 1505 1505 1505 1505 1505 1505 1505 1505 1505 1506 1507 1507 1508 1508 1509 1510 1511 1512 1513 1515 1516 1518 1519 1521 1523 1524 1526 1527 1528 1529 1530
1496 1497 1496 1496 1497 1498 1499 1500 1500 1500 1501 1501 1501 1502 1502 1502 1502 1502 1502 1502 1503 1503 1503 1504 1504 1505 1506 1507 1508 1509 1510 1510 1512 1513 1515 1517 1518 1520 1521 1522 1523 1524 1525 1526
1491 1492 1493 1493 1493 1494 1495 1496 1496 1496 1496 1497 1498 1498 1499 1499 1499 1499 1499 1500 1500 1500 1500 1501 1501 1502 1503 1504 1505 1506 1506 1507 1509 1510 1512 1514 1516 1517 1519 1520 1520 1521 1522 1523
1487 1487 1488 1489 1489 1490 1491 1491 1492 1492 1493 1494 1494 1495 1495 1496 1496 1496 1496 1497 1496 1497 1497 1498 1498 1499 1500 1501 1501 1502 1503 1504 1506 1507 1509 1511 1513 1514 1515 1516 1517 1518 1519 1519
1482 1482 1483 1484 1485 1486 1487 1487 1488 1489 1490 1490 1491 1492 1492 1493 1493 1493 1493 1494 1494 1494 1495 1495 1495 1496 1497 1497 1498 1499 1500 1501 1503 1504 1506 1508 1510 1511 1512 1513 1514 1515 1516 1516
1477 1478 1479 1480 1481 1482 1482 1483 1485 1486 1486 1487 1488 1488 1489 1489 1489 1489 1490 1490 1491 1491 1492 1492 1492 1493 1494 1495 1496 1496 1497 1498 1500 1502 1503 1505 1506 1507 1509 1509 1510 1511 1512 1513
1472 1474 1475 1476 1476 1477 1478 1479 1481 1482 1483 1484 1484 1485 1485 1485 1486 1486 1487 1487 1487 1488 1488 1489 1490 1491 1491 1492 1493 1494 1495 1496 1497 1499 1500 1501 1503 1504 1505 1506 1507 1508 1508 1509
1468 1469 1470 1472 1472 1473 1475 1476 1477 1478 1479 1480 1481 1481 1482 1482 1482 1483 1483 1484 1484 1485 1486 1487 1487 1488 1489 1489 1490 1491 1492 1493 1494 1495 1497 1498 1499 1500 1501 1502 1503 1504 1504 1505
1465 1466 1467 1468 1469 1470 1471 1472 1473 1474 1476 1477 1477 1477 1478 1478 1479 1479 1480 1480 1482 1483 1483 1484 1484 1485 1486 1486 1487 1488 1489 1490 1491 1492 1493 1495 1496 1496 1497 1498 1499 1500 1500 1501
1462 1463 1464 1465 1466 1467 1468 1469 1470 1471 1472 1473 1474 1474 1474 1474 1475 1476 1477 1477 1478 1479 1480 1481 1481 1482 1483 1483 1484 1485 1486 1487 1488 1489 1490 1491 1492 1493 1494 1494 1495 1496 1496 1497
1459 1460 1460 1461 1462 1463 1464 1465 1466 1467 1468 1469 1470 1470 1470 1471 1472 1473 1473 1475 1475 1476 1477 1478 1479 1479 1480 1480 1481 1481 1482 1483 1484 1485 1486 1487 1488 1489 1490 1490 1491 1492 1492 1493
1456 1456 1457 1458 1459 1459 1460 1461 1462 1463 1464 1465 1466 1467 1468 1468 1469 1470 1471 1472 1472 1473 1474 1475 1475 1476 1476 1477 1477 1478 1479 1480 1481 1482 1483 1483 1484 1485 1486 1486 1487 1488 1488 1489
1453 1454 1454 1455 1455 1456 1457 1458 1459 1460 1461 1461 1462 1464 1465 1465 1466 1467 1468 1469 1469 1470 1471 1471 1472 1472 1473 1473 1474 1475 1475 1476 1477 1478 1479 1479 1480 1481 1482 1483 1483 1483 1484 1484
1451 1451 1452 1453 1453 1454 1454 1455 1456 1457 1458 1458 1459 1460 1461 1462 1463 1464 1464 1465 1466 1467 1467 1468 1468 1469 1470 1470 1471 1471 1472 1473 1474 1474 1475 1476 1477 1477 1478 1478 1479 1480 1480 1481
1449 1449 1450 1450 1451 1451 1452 1453 1453 1454 1455 1455 1456 1457 1457 1458 1459 1460 1461 1462 1462 1463 1464 1464 1465 1465 1466 1467 1467 1468 1468 1469 1469 1470 1471 1472 1472 1473 1474 1474 1475 1475 1476 1476